Location: New Paltz
(41.7500°N, 74.0833°W)
Time: 23:16:34
(UTC-04:00)

Daily predictions for brighter satellites

Satellite Brightness Start Highest point End
(mag) Time Altitude Azimuth Time Altitude Azimuth Time Altitude Azimuth
Cosmos 2233 Rocket 4.2 19:00:00 10° S 19:06:18 82° W 19:12:41 10° N
ALOS 3.8 19:06:11 10° ESE 19:09:11 17° ENE 19:12:12 10° NNE
Meteor 1-22 Rocket 4.1 19:05:34 10° S 19:10:52 69° E 19:16:08 10° NNE
USA 215 3.8 19:06:45 10° ENE 19:12:44 37° SE 19:18:41 10° SSW
MSX 4.2 19:07:17 10° S 19:13:00 72° WSW 19:18:46 10° NNW
Cosmos 2369 Rocket 3.8 19:10:23 10° N 19:13:59 17° NE 19:17:34 10° E
SKYMED 2 3.7 19:09:40 10° N 19:14:02 83° WNW 19:18:22 10° SSW
HJ-1C 4.5 19:13:08 10° SE 19:15:57 25° ENE 19:18:48 10° NNE
Cosmos 1707 3.9 19:12:31 10° NNW 19:16:15 49° W 19:19:58 10° S
Cosmos 1408 Rocket 3.9 19:12:37 10° N 19:16:45 41° ENE 19:20:50 10° SSE
Meteor 1-24 Rocket 3.7 19:12:00 10° N 19:17:40 89° E 19:23:06 10° S
IDEFIX/ARIANE 42P 4.1 19:13:50 10° SSW 19:18:43 41° W 19:23:41 10° NNW
Cosmos 1603 4.3 19:15:48 10° SSE 19:20:55 35° ESE 19:26:05 10° NE
GPS 2-04 Rocket1 4.5 19:19:17 10° SSW 19:21:20 15° SSE 19:23:26 10° ESE
NOAA 12 4.1 19:21:16 10° SSE 19:26:29 70° ENE 19:31:46 10° N
Aureole 2 Rocket 3.5 19:25:25 10° SSW 19:29:46 63° WNW 19:34:00 10° NNE
Cosmos 1470 4.3 19:27:38 10° SE 19:30:01 16° E 19:32:24 10° NE
SL-8 R/B 4.4 19:26:08 10° SSW 19:30:27 35° SE 19:34:16 13° ENE
ATLAS CENTAUR R/B 3.6 19:27:51 10° SW 19:32:41 79° SE 19:48:19 10° NE
SeaSat 1 4.1 19:35:14 13° ESE 19:35:14 13° ESE 19:36:47 10° SE
Cosmos 724 4.4 19:29:05 10° SSW 19:34:49 55° ESE 19:40:43 10° NE
SAR-Lupe-1 4.2 19:32:32 10° S 19:36:04 76° WSW 19:39:39 10° NNW
Cosmos 2333 Rocket 4.4 19:31:12 10° WSW 19:36:06 28° NW 19:41:01 10° N
SJ-6B 3.0 19:33:35 10° S 19:37:33 81° WSW 19:41:39 10° NNW
In-Cosmos 22 4.2 19:32:56 10° N 19:38:44 71° E 19:44:27 10° SSE
Resurs 1-3 4.0 19:35:15 10° SE 19:39:24 43° ENE 19:43:34 10° N
Meteor 1-29 3.5 19:37:01 10° NNE 19:40:17 35° E 19:43:30 10° SSE
Helios 1A 3.2 19:36:43 10° SSE 19:40:47 51° ENE 19:44:54 10° N
FREGAT/IRIS 2.6 19:37:56 10° SSE 19:41:01 88° W 19:44:07 10° NNW
TELKOM 3 4.3 19:38:47 10° NW 19:41:25 30° NNE 19:42:22 22° ENE
Resurs 01 Rocket 1.6 19:38:10 10° SSE 19:42:33 61° ENE 19:46:57 10° N
CZ-4B DEB 4.0 19:41:22 19° ESE 19:42:37 25° ENE 19:45:20 10° NNE
Cosmos 1674 3.7 19:41:26 10° NNE 19:44:45 26° ENE 19:46:24 19° ESE
Cosmos 1743 Rocket 4.0 19:41:42 10° N 19:45:56 41° ENE 19:50:05 10° SSE
NOSS 3-2 (A) 3.9 19:40:42 10° SW 19:46:44 67° NW 19:53:24 10° NNE
FengYun 1-2 T 4.3 19:42:55 10° SSE 19:48:18 57° ENE 19:53:40 10° N
Cosmos 1758 3.2 19:46:18 10° S 19:50:21 76° E 19:54:29 10° N
Cosmos 1452 Rocket 3.5 19:45:44 10° NNW 19:51:01 88° WSW 19:56:16 10° SSE
ATLAS 5 CENTAUR R/B 2.1 19:51:37 10° SW 19:56:22 73° NW 20:01:35 10° NNE
Abrixas 2.8 19:54:07 10° SW 19:57:01 46° SE 19:57:41 38° ESE
Nadezhda 4 Rocket 4.0 19:53:42 10° N 19:59:57 64° E 20:06:06 10° SSE
Cosmos 1346 2.9 19:58:14 10° N 20:01:12 67° E 20:02:37 27° SSE
Meteor 2-12 Rocket 4.4 19:58:19 10° S 20:04:28 84° E 20:10:40 10° N
Meteor 1-21 Rocket 4.1 20:02:02 10° N 20:07:37 89° W 20:13:09 10° S
Cosmos 1092 Rocket 4.1 20:01:49 10° N 20:07:54 53° ENE 20:13:45 11° SSE
GP-B 3.8 20:04:16 10° NNE 20:08:15 31° E 20:08:19 31° E
Cosmos 468 4.5 20:03:17 10° SSW 20:08:33 90° ENE 20:13:48 10° NNE
ASTEX 1 3.4 20:06:37 10° NNE 20:11:28 57° E 20:16:15 10° S
Cosmos 1420 Rocket 3.9 20:06:51 10° NNW 20:12:11 80° ENE 20:16:34 15° SSE
SL-16 R/B 4.0 20:12:26 10° WSW 20:17:32 33° WNW 20:22:40 10° N
Helios 1B rocket 2.9 20:13:29 10° N 20:17:33 62° WNW 20:21:37 10° SSW
CENTAUR R/B 2.6 20:12:27 10° S 20:18:10 48° ESE 20:24:34 10° NE
Cosmos 1544 3.4 20:15:54 10° SSW 20:19:37 69° W 20:23:22 10° N
Cosmos 2026 Rocket 4.4 20:15:31 10° N 20:21:10 38° ENE 20:22:37 33° ESE
Cosmos 1634 Rocket 4.0 20:17:32 10° SSE 20:23:33 53° E 20:29:33 10° NNE
NOSS 3-2 (C) 4.5 20:20:00 10° WSW 20:25:54 48° NW 20:32:23 10° NNE
CZ-2D R/B 3.1 20:24:44 43° SSE 20:25:55 79° ENE 20:29:50 10° N
Spot 2 Rocket 4.4 20:22:46 10° S 20:27:37 47° W 20:32:29 10° NNW
OAO 3 Rocket 4.1 20:24:49 10° WSW 20:29:07 34° S 20:30:04 31° SSE
Cosmos 1048 Rocket 4.0 20:26:05 10° SSW 20:31:24 87° WNW 20:36:41 10° NNE
Cosmos 1269 Rocket 4.2 20:26:41 10° SSW 20:31:57 74° WNW 20:37:15 10° NNE
FENGYUN 3A 3.7 20:28:51 10° S 20:34:11 78° WSW 20:39:37 10° NNW
Cosmos-2242 4.5 20:30:59 10° SSW 20:35:04 39° WNW 20:39:12 10° N
Envisat 3.9 20:39:20 32° NE 20:39:20 32° NE 20:43:04 10° N
H-2A R/B 2.9 20:39:09 49° SSW 20:40:05 71° WSW 20:43:58 10° NNW
Gbstr 26 Del rocket 3.2 20:38:22 10° SW 20:42:50 63° SE 20:42:57 63° SE
Cosmos 2195 Rocket 4.4 20:36:55 10° N 20:43:13 65° E 20:45:27 41° SE
Cosmos 2151 3.3 20:39:21 10° N 20:42:41 50° NNE 20:42:41 50° NNE
Cosmos 1174 4.4 20:40:31 10° SSW 20:44:15 49° S 20:44:15 49° S
ISS -1.7 20:42:19 10° SW 20:44:06 30° WSW 20:44:06 30° WSW
Cosmos 2058 4.5 20:42:07 10° N 20:44:01 24° NNE 20:44:01 24° NNE
ALOS 3.0 20:42:16 14° S 20:46:12 52° W 20:50:47 10° NNW
BREEZE-M DEB (TANK) 3.3 20:39:48 10° WNW 20:51:06 65° N 20:52:03 53° ENE
Cosmos 1842 Rocket 4.4 20:50:34 10° SSW 20:54:46 49° W 20:59:00 10° N
Cosmos 1500 Rocket 4.4 20:50:38 10° NNW 20:54:54 49° W 20:57:01 27° SSW
USA 215 3.5 20:49:37 11° NE 20:55:56 65° NW 21:02:23 10° WSW
Cosmos 158 Rocket 3.7 20:51:39 10° SSW 20:56:33 85° WNW 21:01:27 10° NNE
Cosmos 2369 Rocket 2.1 20:53:03 10° NNW 20:58:45 84° WSW 20:59:45 62° SSE
Cosmos 1943 Rocket 2.7 20:53:26 10° NNW 20:58:07 42° NE 20:58:07 42° NE
Cosmos 1943 3.1 20:53:53 10° SSW 20:59:31 84° WNW 21:05:11 10° NNE
Cosmos 1470 4.4 21:02:16 10° SW 21:05:49 33° WNW 21:09:23 10° N
Cosmos 2263 4.1 21:00:03 10° NNW 21:05:52 81° ENE 21:05:59 80° E
Cosmos 1627 Rocket 4.5 21:03:10 10° N 21:09:23 81° W 21:11:13 49° S
SeaSat 1 3.9 21:07:31 10° NNE 21:15:13 27° SW 21:17:24 10° SSW
SL-8 R/B 4.2 21:08:06 10° WSW 21:12:17 58° WNW 21:12:17 58° WNW
ERS-1 Rocket 3.4 21:15:21 54° N 21:15:21 54° N 21:19:15 10° NNW
Cosmos 1110 Rocket 4.4 21:17:52 10° NNW 21:22:20 63° NW 21:22:20 63° NW
Cosmos 2279 Rocket 4.4 21:46:27 60° WNW 21:46:27 60° WNW 21:52:22 10° N
CENTAUR R/B 3.8 22:03:17 10° WSW 22:09:00 37° NW 22:15:26 10° NNE
